Weather History for Bellefontaine, OH

Change the Weather History Date:

Wednesday, December 5, 2012

  Actual Average (KDAY) Record (KDAY)
Temperature  
Mean Temperature 32 °F 34 °F  
Max Temperature 37 °F 42 °F 68 °F (2001)
Min Temperature 28 °F 27 °F 6 °F (1901)
Degree Days  
Heating Degree Days 32 31  
Month to date heating degree days 149  
Since 1 July heating degree days 1260  
Cooling Degree Days 0 0  
Month to date cooling degree days 0  
Year to date cooling degree days 891  
Moisture  
Dew Point 30 °F    
Average Humidity 89    
Maximum Humidity 100    
Minimum Humidity 70    
Precipitation  
Precipitation 0.00 in 0.10 in 1.94 in (2011)
Month to date precipitation 0.51  
Year to date precipitation 38.44  
Snow  
Snow 0.00 in 0.10 in 4.80 in (1984)
Month to date snowfall 0.4  
Since 1 July snowfall 1.4  
Snow Depth -    
Sea Level Pressure  
Sea Level Pressure 30.28 in    
Wind  
Wind Speed 5 mph (NNE)    
Max Wind Speed 15 mph    
Max Gust Speed 21 mph    
Visibility 10 miles    
Events      
T = Trace of Precipitation, MM = Missing Value Source: NWS Daily Summary

Daily Weather History Graph

Daily Weather History Graph

Search for Another Location

Airport:

Trip Planner

Search our weather history database for the weather conditions in past years. The results will help you decide how hot, cold, wet, or windy it might be!

Date:

Astronomy

Dec. 05, 2012 Rise Set
Actual Time 7:43 AM EST 5:08 PM EST
Civil Twilight 7:12 AM EST 5:39 PM EST
Nautical Twilight 6:38 AM EST 6:13 PM EST
Astronomical Twilight 6:05 AM EST 6:46 PM EST
Moon 11:58 PM EST (12/5) 12:05 PM EST (12/5)
Length of Visible Light 10h 26m
Length of Day
9h 25m
Waning Gibbous, 60% of the Moon is Illuminated
Dec 5
Waning Gibbous
Dec 6
Last Quarter
Dec 13
New
Dec 20
First Quarter
Dec 28
Full

Hourly Weather History & Observations

Time (EST) Temp. Windchill Dew Point Humidity Pressure Visibility Wind Dir Wind Speed Gust Speed Precip Events Conditions
12:10 AM 37.4 °F 34.9 °F 37.4 °F 100% 30.15 in 9.0 mi South 3.5 mph - 0.00 in   Clear
12:30 AM 37.4 °F - 37.4 °F 100% 30.16 in 8.0 mi Calm Calm - 0.00 in   Clear
12:50 AM 37.4 °F 34.9 °F 37.4 °F 100% 30.16 in 8.0 mi SSW 3.5 mph - 0.00 in   Clear
1:10 AM 37.4 °F 34.9 °F 37.4 °F 100% 30.16 in 8.0 mi SW 3.5 mph - 0.00 in   Clear
1:30 AM 35.6 °F 30.7 °F 35.6 °F 100% 30.16 in 7.0 mi South 5.8 mph - 0.00 in   Clear
1:50 AM 37.4 °F 34.9 °F 37.4 °F 100% 30.18 in 10.0 mi South 3.5 mph - 0.00 in   Clear
2:10 AM 37.4 °F 34.9 °F 37.4 °F 100% 30.18 in 7.0 mi SSW 3.5 mph - 0.00 in   Clear
2:50 AM 35.6 °F - 35.6 °F 100% 30.19 in 10.0 mi Calm Calm - 0.00 in   Clear
3:10 AM 33.8 °F - 33.8 °F 100% 30.20 in 8.0 mi Calm Calm - 0.00 in   Clear
3:30 AM 35.6 °F - 35.6 °F 100% 30.21 in 10.0 mi Calm Calm - 0.00 in   Clear
3:50 AM 35.6 °F - 35.6 °F 100% 30.21 in 9.0 mi Calm Calm - 0.00 in   Clear
4:10 AM 33.8 °F 30.8 °F 33.8 °F 100% 30.21 in 8.0 mi West 3.5 mph - 0.00 in   Clear
4:30 AM 33.8 °F 29.6 °F 33.8 °F 100% 30.21 in 10.0 mi West 4.6 mph - 0.00 in   Clear
4:50 AM 32.0 °F 28.7 °F 32.0 °F 100% 30.22 in 10.0 mi West 3.5 mph - 0.00 in   Clear
5:10 AM 33.8 °F - 33.8 °F 100% 30.22 in 10.0 mi Calm Calm - 0.00 in   Clear
5:30 AM 33.8 °F - 33.8 °F 100% 30.23 in 10.0 mi Calm Calm - 0.00 in   Clear
5:50 AM 33.8 °F 28.6 °F 33.8 °F 100% 30.23 in 10.0 mi NW 5.8 mph - 0.00 in   Clear
6:10 AM 33.8 °F 29.6 °F 33.8 °F 100% 30.25 in 10.0 mi NW 4.6 mph - 0.00 in   Clear
6:30 AM 33.8 °F 27.7 °F 33.8 °F 100% 30.25 in 10.0 mi NW 6.9 mph - 0.00 in   Clear
6:50 AM 33.8 °F 28.6 °F 32.0 °F 93% 30.26 in 10.0 mi NW 5.8 mph - 0.00 in   Clear
7:10 AM 32.0 °F - 32.0 °F 100% 30.28 in 10.0 mi Calm Calm - 0.00 in   Clear
7:30 AM 32.0 °F 23.6 °F 32.0 °F 100% 30.28 in 10.0 mi North 10.4 mph - 0.00 in   Clear
7:50 AM 32.0 °F 24.8 °F 32.0 °F 100% 30.28 in 10.0 mi North 8.1 mph - 0.00 in   Clear
9:30 AM 33.8 °F 25.3 °F 32.0 °F 93% 30.33 in 10.0 mi NNW 11.5 mph - 0.00 in   Mostly Cloudy
9:50 AM 33.8 °F 24.3 °F 32.0 °F 93% 30.33 in 10.0 mi North 13.8 mph - 0.00 in   Mostly Cloudy
10:10 AM 33.8 °F 24.3 °F 30.2 °F 87% 30.34 in 10.0 mi North 13.8 mph 20.7 mph 0.00 in   Partly Cloudy
10:30 AM 33.8 °F 23.9 °F 30.2 °F 87% 30.35 in 10.0 mi North 15.0 mph - 0.00 in   Clear
10:50 AM 33.8 °F 23.9 °F 30.2 °F 87% 30.35 in 10.0 mi North 15.0 mph - 0.00 in   Partly Cloudy
11:10 AM 33.8 °F 25.3 °F 28.4 °F 81% 30.35 in 10.0 mi North 11.5 mph - 0.00 in   Clear
11:30 AM 33.8 °F 23.9 °F 30.2 °F 87% 30.34 in 10.0 mi NNE 15.0 mph - 0.00 in   Scattered Clouds
11:50 AM 33.8 °F 24.3 °F 30.2 °F 87% 30.34 in 10.0 mi North 13.8 mph - 0.00 in   Mostly Cloudy
12:10 PM 33.8 °F 26.4 °F 30.2 °F 87% 30.33 in 10.0 mi North 9.2 mph - 0.00 in   Mostly Cloudy
12:30 PM 33.8 °F 25.8 °F 28.4 °F 81% 30.33 in 10.0 mi NNE 10.4 mph - 0.00 in   Partly Cloudy
12:50 PM 33.8 °F 26.4 °F 28.4 °F 81% 30.32 in 10.0 mi North 9.2 mph - 0.00 in   Partly Cloudy
1:10 PM 33.8 °F 27.0 °F 28.4 °F 81% 30.32 in 10.0 mi NNE 8.1 mph - 0.00 in   Scattered Clouds
1:30 PM 35.6 °F 28.6 °F 28.4 °F 75% 30.32 in 10.0 mi NE 9.2 mph - 0.00 in   Partly Cloudy
1:50 PM 35.6 °F 29.9 °F 28.4 °F 75% 30.32 in 10.0 mi North 6.9 mph - 0.00 in   Partly Cloudy
2:10 PM 35.6 °F 29.9 °F 28.4 °F 75% 30.31 in 10.0 mi North 6.9 mph - 0.00 in   Clear
2:30 PM 35.6 °F 28.6 °F 26.6 °F 70% 30.32 in 10.0 mi NNE 9.2 mph - 0.00 in   Clear
2:50 PM 35.6 °F 28.6 °F 28.4 °F 75% 30.32 in 10.0 mi NNE 9.2 mph - 0.00 in   Clear
3:10 PM 35.6 °F 30.7 °F 26.6 °F 70% 30.32 in 10.0 mi NNE 5.8 mph - 0.00 in   Clear
3:30 PM 35.6 °F 29.9 °F 26.6 °F 70% 30.33 in 10.0 mi ENE 6.9 mph - 0.00 in   Clear
3:50 PM 33.8 °F 28.6 °F 26.6 °F 75% 30.32 in 10.0 mi NE 5.8 mph - 0.00 in   Clear
4:10 PM 33.8 °F 28.6 °F 26.6 °F 75% 30.32 in 10.0 mi NNE 5.8 mph - 0.00 in   Clear
4:30 PM 33.8 °F 27.7 °F 26.6 °F 75% 30.32 in 10.0 mi NE 6.9 mph - 0.00 in   Clear
4:50 PM 33.8 °F 27.7 °F 26.6 °F 75% 30.32 in 10.0 mi NE 6.9 mph - 0.00 in   Clear
5:10 PM 32.0 °F 25.6 °F 26.6 °F 80% 30.33 in 10.0 mi NE 6.9 mph - 0.00 in   Clear
5:30 PM 32.0 °F 26.4 °F 26.6 °F 80% 30.33 in 10.0 mi NE 5.8 mph - 0.00 in   Clear
5:50 PM 32.0 °F 28.7 °F 26.6 °F 80% 30.34 in 10.0 mi NNE 3.5 mph - 0.00 in   Clear
6:10 PM 30.2 °F 25.4 °F 28.4 °F 93% 30.33 in 10.0 mi NE 4.6 mph - 0.00 in   Clear
6:30 PM 30.2 °F 25.4 °F 28.4 °F 93% 30.33 in 10.0 mi NE 4.6 mph - 0.00 in   Clear
6:50 PM 28.4 °F 23.3 °F 26.6 °F 93% 30.33 in 10.0 mi NE 4.6 mph - 0.00 in   Clear
7:10 PM 28.4 °F 23.3 °F 26.6 °F 93% 30.32 in 10.0 mi NE 4.6 mph - 0.00 in   Clear
7:30 PM 28.4 °F - 26.6 °F 93% 30.32 in 10.0 mi Calm Calm - 0.00 in   Clear
7:50 PM 28.4 °F 22.2 °F 26.6 °F 93% 30.32 in 10.0 mi ENE 5.8 mph - 0.00 in   Clear
8:10 PM 30.2 °F 26.7 °F 26.6 °F 86% 30.32 in 10.0 mi East 3.5 mph - 0.00 in   Clear
8:30 PM 30.2 °F 26.7 °F 26.6 °F 86% 30.32 in 10.0 mi East 3.5 mph - 0.00 in   Clear
8:50 PM 28.4 °F - 26.6 °F 93% 30.32 in 10.0 mi Calm Calm - 0.00 in   Clear
9:10 PM 28.4 °F 22.2 °F 26.6 °F 93% 30.31 in 10.0 mi ENE 5.8 mph - 0.00 in   Clear
9:30 PM 28.4 °F 23.3 °F 26.6 °F 93% 30.31 in 10.0 mi ENE 4.6 mph - 0.00 in   Clear
9:50 PM 28.4 °F 23.3 °F 24.8 °F 86% 30.31 in 10.0 mi ENE 4.6 mph - 0.00 in   Clear
10:10 PM 28.4 °F - 24.8 °F 86% 30.31 in 10.0 mi Calm Calm - 0.00 in   Clear
10:30 PM 28.4 °F 20.4 °F 24.8 °F 86% 30.29 in 10.0 mi ENE 8.1 mph - 0.00 in   Clear
10:50 PM 28.4 °F 22.2 °F 24.8 °F 86% 30.29 in 10.0 mi East 5.8 mph - 0.00 in   Clear
11:10 PM 30.2 °F 24.3 °F 23.0 °F 75% 30.29 in 10.0 mi East 5.8 mph - 0.00 in   Clear
11:30 PM 30.2 °F 24.3 °F 23.0 °F 75% 30.30 in 10.0 mi ENE 5.8 mph - 0.00 in   Clear
11:50 PM 30.2 °F 23.4 °F 23.0 °F 75% 30.29 in 10.0 mi East 6.9 mph - 0.00 in   Clear